This is the latest recevied weather packets stored in our database for station/object IW2LAO-13. If no packets are shown the sender has not sent any weather packets the latest 10 day(s).
| Time | Temp. | Humidity | Pressure | Rain* | Wind** | Luminosity | Snow |
|---|---|---|---|---|---|---|---|
| 1777966295 | 13.33° C | 79% | 1012 hPa | 0 mm | - | 37 W/m² | - |
| 1777956088 | 13.89° C | 71% | 1011.4 hPa | 0 mm | - | 0 W/m² | - |
| 1777954888 | 13.89° C | 68% | 1011.2 hPa | 0 mm | - | 5 W/m² | - |
| 1777953684 | 13.89° C | 68% | 1011.2 hPa | 0 mm | - | 0 W/m² | - |
| 1777948281 | 14.44° C | 65% | 1012 hPa | 0 mm | - | 0 W/m² | - |
| 1777946479 | 14.44° C | 66% | 1012.1 hPa | 0 mm | - | 0 W/m² | - |
| 1777944078 | 13.89° C | 69% | 1012.8 hPa | 0 mm | - | 0 W/m² | - |
| 1777941676 | 13.33° C | 71% | 1013.6 hPa | 0 mm | - | 0 W/m² | - |
| 1777933276 | 13.89° C | 68% | 1014.8 hPa | 0 mm | - | 0 W/m² | - |
| 1777932675 | 13.89° C | 69% | 1014.8 hPa | 0 mm | - | 0 W/m² | - |
| 1777924873 | 17.22° C | 60% | 1014.8 hPa | 0 mm | - | 0 W/m² | - |
| 1777919476 | 18.89° C | 54% | 1014.2 hPa | 0 mm | - | 0 W/m² | - |
| 1777917070 | 20.56° C | 49% | 1014.1 hPa | 0 mm | - | 33 W/m² | - |
| 1777912696 | 21.67° C | 46% | 1013.8 hPa | 0 mm | - | 158 W/m² | - |
| 1777911502 | 21.67° C | 47% | 1013.7 hPa | 0 mm | - | 262 W/m² | - |
| 1777909706 | 21.67° C | 46% | 1013.6 hPa | 0 mm | - | 223 W/m² | - |
| 1777908498 | 21.67° C | 46% | 1013.7 hPa | 0 mm | - | 202 W/m² | - |
| 1777904904 | 22.78° C | 44% | 1013.8 hPa | 0 mm | - | 329 W/m² | - |
| 1777893493 | 22.78° C | 48% | 1014.9 hPa | 0 mm | - | 383 W/m² | - |
| 1777892890 | 23.33° C | 46% | 1014.9 hPa | 0 mm | - | 526 W/m² | - |
| 1777879688 | 17.22° C | 61% | 1016.3 hPa | 0 mm | - | 278 W/m² | - |
| 1777873084 | 14.44° C | 64% | 1016.1 hPa | 0 mm | - | 91 W/m² | - |
| 1777868876 | 14.44° C | 63% | 1015.7 hPa | 0 mm | - | 18 W/m² | - |
| 1777868279 | 13.33° C | 67% | 1015.7 hPa | 0 mm | - | 14 W/m² | - |
| 1777867676 | 13.33° C | 69% | 1015.7 hPa | 0 mm | - | 5 W/m² | - |
* Rain latest hour (hover to see other rain measurements)
** Current wind speed in m/s (hover to see current wind gust speed)